Regional Weather Roundup
Issued by NWS

Home | Current Version | Previous Version | Graphics & Text | Print | Product List | Glossary On
Versions: 1 2 3 4 5 6 7 8 9 10 11 12 13 14 15 16 17 18 19 20 21 22 23 24 25 26 27 28 29 30 31 32 33 34 35 36 37 38 39 40 41 42 43 44 45 46 47 48 49 50
000
ASUS44 KMEG 221310
RWRTN
TENNESSEE HOURLY STATE WEATHER ROUNDUP
NATIONAL WEATHER SERVICE MEMPHIS TN
800 AM CDT MON SEP 22 2014

TNZ002-004-019-021-049-052-054-088>092-221400-
WEST TENNESSEE

CITY           SKY/WX    TMP DP  RH WIND       PRES   REMARKS
MEMPHIS INTL   SUNNY     63  52  67 NE9       30.20R
NWS MEMPHIS      N/A     60 N/A N/A MISG        N/A
JACKSON        SUNNY     58  53  84 N6        30.20R
DYERSBURG      SUNNY     59  45  58 N8        30.23R
UNION CITY     SUNNY     55  54  94 N6        30.21R
PARIS          SUNNY     54  50  87 VRB5      30.21R
HUNTINGDON     SUNNY     55  50  83 N6        30.21R
LEXINGTON      SUNNY     55  52  88 N6        30.17R
SAVANNAH       SUNNY     55  55 100 N3        30.17S
$$

TNZ008-025-027-028-033-062-065-066-221400-
NORTH MIDDLE TENNESSEE

CITY           SKY/WX    TMP DP  RH WIND       PRES   REMARKS
NASHVILLE      SUNNY     60  52  74 N10       30.18R
DICKSON        SUNNY     55  50  82 NE5       30.18R
PORTLAND       SUNNY     54  50  87 N3        30.18R
CLARKSVILLE    SUNNY     56  51  84 N8        30.20R
LEBANON        SUNNY     54  51  89 CALM      30.16R
SMYRNA         SUNNY     59  52  77 N10       30.18R
MURFREESBORO   SUNNY     56  51  83 N6        30.16R
COOKEVILLE     SUNNY     55  52  88 NE5       30.16R
LIVINGSTON     SUNNY     54  49  83 NE7       30.18
GALLATIN       SUNNY     57  53  86 N7        30.19R
CROSSVILLE     SUNNY     55  47  74 N9        30.17R
$$

TNZ061-075-076-078-094-096-097-221400-
SOUTH MIDDLE TENNESSEE

CITY           SKY/WX    TMP DP  RH WIND       PRES   REMARKS
LEWISBURG      SUNNY     57  52  84 N3        30.16R
FAYETTEVILLE   SUNNY     55  50  82 N8        30.14S
TULLAHOMA      SUNNY     57  52  82 N9        30.16R
WINCHESTER     SUNNY     57  54  88 N5        30.15R
MCMINNVILLE    SUNNY     57  57 100 N7        30.16R
COLUMBIA       SUNNY     57  54  88 N3        30.15R
SHELBYVILLE    SUNNY     57  54  88 N6        30.17R
$$

TNZ017-018-042-046-047-221400-
NORTHEAST TENNESSEE

CITY           SKY/WX    TMP DP  RH WIND       PRES   REMARKS
TRI CITIES     MOSUNNY   58  49  72 VRB5      30.14R
ELIZABETHTON   FOG       50  48  93 CALM      30.14R VSB 1/4
$$

TNZ012-013-036-069-073-074-221400-
CENTRAL EAST TENNESSEE

CITY           SKY/WX    TMP DP  RH WIND       PRES   REMARKS
KNOXVILLE      MOSUNNY   59  52  77 E6        30.13R
OAK RIDGE      SUNNY     60  49  66 E5        30.15R
GATLINBURG     SUNNY     57  54  88 CALM      30.14R
MORRISTOWN     SUNNY     57  48  72 N8        30.15R
$$

TNZ083-085-099-221400-
SOUTHEAST TENNESSEE

CITY           SKY/WX    TMP DP  RH WIND       PRES   REMARKS
CHATTANOOGA    MOSUNNY   64  51  62 N8        30.12R
$$

SKY/WX REPORTED AS FAIR MEANS FEW OR NO CLOUDS BELOW
12 THOUSAND FEET.




USA.gov is the U.S. government's official web portal to all federal, state and local government web resources and services.